Location: ??????
(55.6500°N, 37.8000°E)
Time: 11:47:09
(UTC+00:00)

Cosmos 1092 Rocket - Pass Details

Date: 14 April 2024
Orbit: 955 x 993 km, 83.0° (Epoch: 18 May)

Event Time Altitude Azimuth Distance (km) Brightness Sun altitude
Exits shadow 00:41:45 - 183° (S) 3,009 6.2 -13.6°
Reaches altitude 10° 00:42:37 10° 183° (S) 2,681 5.9 -13.5°
Maximum altitude 00:48:44 79° 98° (E) 980 4.1 -12.8°
Drops below altitude 10° 00:54:55 10° 13° (NNE) 2,705 7.1 -12.1°
Sets 00:57:26 0° 13° (NNE) 3,659 7.9 -11.8°
